Powrót do katalogu

CALSPHERE 1

AktywnyNaukaPO
NORAD 900·PAYLOAD·🇺🇸 United States

Wystrzelony Oct 6, 1964 z Vandenberg Space Force Base

Loading…

Następne Przeloty (najbliższe 24 godziny)

TLE

ŚwieżeSource: Space-Track

Epoka: Sep 14, 2026, 11:42 UTC

1 00900U 64063C   26257.48799447  .00000447  00000-0  44475-3 0  9994
2 00900  90.2176  73.8381 0026728  26.2035   2.7230 13.76703763 83715

Śledź CALSPHERE 1 w czasie rzeczywistym z AllMySat

Download on the App Store